ASA717 KLAX-KSEA

Flight info

Callsign ASA717
Flight time 2h 6m
Altitude 38000
Route LADYJ4 CSTRO SHIMR LKV HAWKZ8
Aircraft B737/M-SDE2E3FGHIRWXY/LB1

Departure

Time 2026-04-25 02:14
Airport Los Angeles International Airport (KLAX)

Arrival

Time 2026-04-25 04:20
Airport Seattle–Tacoma International Airport (KSEA)
Time Latitude Longitude Altitude Speed Heading
2026-04-25 01:36 33.94144 -118.40268 94 ft 0 kts 86°
2026-04-25 02:02 33.94144 -118.40270 94 ft 2 kts 86°
2026-04-25 02:02 33.94143 -118.40299 94 ft 3 kts 98°
2026-04-25 02:02 33.94153 -118.40327 93 ft 3 kts 145°
2026-04-25 02:02 33.94165 -118.40333 94 ft 1 kts 173°
2026-04-25 02:06 33.94162 -118.40333 94 ft 1 kts 173°
2026-04-25 02:07 33.94146 -118.40330 94 ft 0 kts 173°
2026-04-25 02:07 33.94140 -118.40330 95 ft 3 kts 173°
2026-04-25 02:07 33.94101 -118.40324 96 ft 8 kts 173°
2026-04-25 02:07 33.94026 -118.40313 96 ft 13 kts 171°
2026-04-25 02:08 33.93929 -118.40295 98 ft 14 kts 172°
2026-04-25 02:08 33.93862 -118.40283 102 ft 7 kts 153°
2026-04-25 02:08 33.93855 -118.40230 103 ft 7 kts 84°
2026-04-25 02:08 33.93862 -118.40165 103 ft 9 kts 83°
2026-04-25 02:09 33.93871 -118.40076 104 ft 13 kts 83°
2026-04-25 02:09 33.93883 -118.39955 102 ft 16 kts 83°
2026-04-25 02:09 33.93899 -118.39801 101 ft 20 kts 83°
2026-04-25 02:09 33.93917 -118.39620 102 ft 22 kts 82°
2026-04-25 02:10 33.93936 -118.39439 101 ft 22 kts 83°
2026-04-25 02:10 33.93953 -118.39264 100 ft 21 kts 82°
2026-04-25 02:10 33.93971 -118.39093 101 ft 20 kts 83°
2026-04-25 02:10 33.93988 -118.38927 101 ft 20 kts 82°
2026-04-25 02:11 33.94005 -118.38766 101 ft 19 kts 83°
2026-04-25 02:11 33.94021 -118.38611 102 ft 18 kts 83°
2026-04-25 02:11 33.94037 -118.38457 102 ft 16 kts 83°
2026-04-25 02:11 33.94044 -118.38360 103 ft 7 kts 99°
2026-04-25 02:12 33.94040 -118.38346 102 ft 1 kts 112°
2026-04-25 02:12 33.94032 -118.38334 103 ft 3 kts 131°
2026-04-25 02:12 33.94011 -118.38328 106 ft 0 kts 173°
2026-04-25 02:12 33.93969 -118.38330 108 ft 10 kts 202°
2026-04-25 02:13 33.93948 -118.38385 109 ft 7 kts 263°
2026-04-25 02:13 33.93913 -118.38718 107 ft 91 kts 263°
2026-04-25 02:13 33.93793 -118.39878 142 ft 182 kts 262°
2026-04-25 02:13 33.93600 -118.41604 629 ft 233 kts 262°
2026-04-25 02:14 33.93389 -118.43617 1847 ft 239 kts 263°
2026-04-25 02:14 33.93197 -118.45597 3006 ft 249 kts 263°
2026-04-25 02:14 33.93010 -118.47767 3819 ft 262 kts 264°
2026-04-25 02:14 33.92831 -118.49965 4775 ft 266 kts 264°
2026-04-25 02:15 33.92653 -118.52193 5615 ft 269 kts 264°
2026-04-25 02:15 33.92472 -118.54417 6775 ft 270 kts 264°
2026-04-25 02:15 33.92330 -118.56153 7571 ft 275 kts 264°
2026-04-25 02:15 33.92172 -118.58057 7778 ft 276 kts 264°
2026-04-25 02:16 33.92022 -118.60353 8012 ft 276 kts 272°
2026-04-25 02:16 33.92545 -118.62573 8045 ft 280 kts 302°
2026-04-25 02:16 33.93895 -118.64250 8066 ft 281 kts 326°
2026-04-25 02:16 33.95605 -118.65392 8065 ft 280 kts 333°
2026-04-25 02:17 33.97353 -118.66435 8048 ft 281 kts 333°
2026-04-25 02:17 33.99115 -118.67453 8049 ft 281 kts 339°
2026-04-25 02:17 34.01051 -118.67797 8166 ft 287 kts
2026-04-25 02:17 34.03016 -118.67626 9169 ft 285 kts
2026-04-25 02:18 34.04999 -118.67427 10262 ft 287 kts
2026-04-25 02:18 34.07051 -118.67255 10856 ft 308 kts
2026-04-25 02:18 34.09285 -118.66987 11195 ft 333 kts
2026-04-25 02:18 34.11608 -118.66495 12030 ft 341 kts 11°
2026-04-25 02:19 34.13916 -118.65878 12956 ft 345 kts 13°
2026-04-25 02:19 34.16267 -118.65227 13878 ft 348 kts 12°
2026-04-25 02:19 34.18655 -118.64612 14748 ft 353 kts 11°
2026-04-25 02:19 34.21083 -118.64023 15596 ft 357 kts 11°
2026-04-25 02:20 34.23552 -118.63452 16418 ft 362 kts
2026-04-25 02:20 34.26049 -118.63507 17130 ft 368 kts 348°
2026-04-25 02:20 34.28556 -118.64211 17970 ft 371 kts 346°
2026-04-25 02:20 34.31090 -118.64945 18699 ft 376 kts 347°
2026-04-25 02:21 34.33683 -118.65526 19434 ft 381 kts 351°
2026-04-25 02:21 34.36323 -118.66031 20158 ft 385 kts 351°
2026-04-25 02:21 34.38948 -118.66569 20891 ft 388 kts 349°
2026-04-25 02:21 34.41622 -118.67161 21634 ft 391 kts 349°
2026-04-25 02:22 34.44319 -118.67767 22282 ft 396 kts 349°
2026-04-25 02:22 34.47053 -118.68320 22874 ft 401 kts 351°
2026-04-25 02:22 34.49829 -118.68851 23471 ft 405 kts 351°
2026-04-25 02:22 34.52632 -118.69379 24086 ft 409 kts 351°
2026-04-25 02:23 34.55463 -118.69918 24629 ft 414 kts 351°
2026-04-25 02:23 34.58324 -118.70470 25177 ft 418 kts 351°
2026-04-25 02:23 34.61213 -118.71033 25711 ft 422 kts 351°
2026-04-25 02:23 34.64089 -118.71597 26238 ft 425 kts 351°
2026-04-25 02:24 34.67021 -118.72172 26724 ft 428 kts 351°
2026-04-25 02:24 34.69979 -118.72752 27187 ft 432 kts 350°
2026-04-25 02:24 34.72955 -118.73540 27621 ft 436 kts 341°
2026-04-25 02:24 34.75685 -118.75062 28039 ft 439 kts 330°
2026-04-25 02:25 34.78300 -118.77006 28502 ft 441 kts 327°
2026-04-25 02:25 34.80871 -118.79071 28933 ft 444 kts 326°
2026-04-25 02:25 34.83470 -118.81133 29292 ft 448 kts 327°
2026-04-25 02:25 34.86141 -118.83113 29669 ft 451 kts 330°
2026-04-25 02:26 34.88888 -118.84988 30063 ft 453 kts 331°
2026-04-25 02:26 34.91633 -118.86805 30482 ft 454 kts 331°
2026-04-25 02:26 34.94410 -118.88643 30942 ft 454 kts 331°
2026-04-25 02:26 34.97186 -118.90503 31358 ft 455 kts 330°
2026-04-25 02:27 34.99958 -118.92385 31739 ft 455 kts 330°
2026-04-25 02:27 35.02726 -118.94285 32169 ft 455 kts 330°
2026-04-25 02:27 35.05444 -118.96161 32644 ft 452 kts 330°
2026-04-25 02:27 35.08176 -118.98053 33096 ft 450 kts 330°
2026-04-25 02:28 35.10900 -118.99941 33487 ft 450 kts 330°
2026-04-25 02:28 35.13630 -119.01835 33848 ft 450 kts 330°
2026-04-25 02:28 35.16356 -119.03725 34225 ft 449 kts 330°
2026-04-25 02:28 35.19072 -119.05610 34595 ft 448 kts 330°
2026-04-25 02:29 35.21748 -119.07467 34934 ft 447 kts 330°
2026-04-25 02:29 35.24457 -119.09349 35257 ft 447 kts 330°
2026-04-25 02:29 35.27169 -119.11234 35582 ft 446 kts 330°
2026-04-25 02:29 35.29865 -119.13110 35908 ft 445 kts 330°
2026-04-25 02:30 35.32556 -119.14984 36216 ft 445 kts 330°
2026-04-25 02:30 35.35252 -119.16863 36485 ft 445 kts 330°
2026-04-25 02:30 35.37946 -119.18742 36733 ft 445 kts 330°
2026-04-25 02:30 35.40648 -119.20627 37000 ft 445 kts 330°
2026-04-25 02:31 35.43339 -119.22506 37271 ft 445 kts 330°
2026-04-25 02:31 35.46114 -119.24077 37426 ft 447 kts 345°
2026-04-25 02:31 35.49159 -119.24861 37706 ft 445 kts 350°
2026-04-25 02:31 35.51195 -119.25280 37920 ft 444 kts 350°
2026-04-25 02:32 35.54247 -119.25968 37992 ft 448 kts 347°
2026-04-25 02:32 35.60331 -119.27856 37991 ft 451 kts 344°
2026-04-25 02:33 35.66359 -119.29868 37993 ft 445 kts 345°
2026-04-25 02:33 35.72314 -119.31748 38000 ft 442 kts 346°
2026-04-25 02:34 35.78282 -119.33557 37999 ft 441 kts 346°
2026-04-25 02:34 35.84246 -119.35345 38001 ft 440 kts 346°
2026-04-25 02:35 35.90196 -119.37132 38001 ft 440 kts 346°
2026-04-25 02:35 35.96117 -119.38917 38003 ft 440 kts 346°
2026-04-25 02:36 36.02088 -119.40720 38003 ft 442 kts 346°
2026-04-25 02:36 36.08081 -119.42535 38004 ft 443 kts 346°
2026-04-25 02:37 36.14046 -119.44343 38004 ft 445 kts 346°
2026-04-25 02:37 36.20079 -119.46174 38003 ft 446 kts 346°
2026-04-25 02:38 36.26125 -119.48013 38002 ft 447 kts 346°
2026-04-25 02:38 36.32188 -119.49859 38002 ft 448 kts 346°
2026-04-25 02:39 36.38222 -119.51699 38001 ft 448 kts 346°
2026-04-25 02:39 36.44278 -119.53550 38001 ft 448 kts 346°
2026-04-25 02:40 36.50330 -119.55402 38000 ft 447 kts 346°
2026-04-25 02:40 36.56375 -119.57255 38000 ft 447 kts 346°
2026-04-25 02:41 36.62407 -119.59106 38000 ft 446 kts 346°
2026-04-25 02:41 36.68435 -119.60960 38001 ft 445 kts 346°
2026-04-25 02:42 36.74422 -119.62804 38001 ft 445 kts 346°
2026-04-25 02:42 36.80443 -119.64662 38001 ft 445 kts 346°
2026-04-25 02:43 36.86465 -119.66522 38001 ft 444 kts 346°
2026-04-25 02:43 36.92431 -119.68369 38002 ft 444 kts 346°
2026-04-25 02:44 36.98443 -119.70232 38001 ft 444 kts 346°
2026-04-25 02:44 37.04463 -119.72102 38001 ft 445 kts 346°
2026-04-25 02:45 37.10472 -119.73970 38000 ft 445 kts 346°
2026-04-25 02:45 37.16470 -119.75839 38004 ft 446 kts 346°
2026-04-25 02:46 37.22505 -119.77722 38003 ft 447 kts 346°
2026-04-25 02:46 37.28548 -119.79611 37999 ft 447 kts 346°
2026-04-25 02:47 37.34597 -119.81504 38004 ft 448 kts 346°
2026-04-25 02:47 37.40621 -119.83393 37998 ft 449 kts 346°
2026-04-25 02:48 37.46689 -119.85299 38002 ft 449 kts 346°
2026-04-25 02:48 37.52782 -119.87216 37998 ft 450 kts 346°
2026-04-25 02:49 37.58833 -119.89124 37999 ft 451 kts 346°
2026-04-25 02:49 37.64930 -119.91048 38010 ft 452 kts 346°
2026-04-25 02:50 37.71061 -119.92987 37994 ft 453 kts 346°
2026-04-25 02:50 37.77147 -119.94915 37998 ft 453 kts 346°
2026-04-25 02:51 37.83275 -119.96860 38009 ft 453 kts 346°
2026-04-25 02:51 37.89401 -119.98807 38003 ft 453 kts 346°
2026-04-25 02:52 37.95493 -120.00746 37997 ft 453 kts 346°
2026-04-25 02:52 38.01632 -120.02704 38001 ft 454 kts 346°
2026-04-25 02:53 38.07763 -120.04664 37998 ft 454 kts 346°
2026-04-25 02:53 38.13864 -120.06617 38007 ft 455 kts 346°
2026-04-25 02:54 38.20010 -120.08587 38005 ft 455 kts 345°
2026-04-25 02:54 38.26215 -120.10292 37998 ft 455 kts 351°
2026-04-25 02:55 38.32497 -120.11078 37997 ft 456 kts 357°
2026-04-25 02:55 38.38865 -120.11349 38003 ft 457 kts 358°
2026-04-25 02:56 38.45229 -120.11693 37998 ft 458 kts 356°
2026-04-25 02:56 38.51569 -120.12197 38008 ft 458 kts 356°
2026-04-25 02:57 38.57942 -120.12779 38004 ft 459 kts 355°
2026-04-25 02:57 38.64334 -120.13376 38011 ft 460 kts 355°
2026-04-25 02:58 38.70735 -120.13969 38004 ft 461 kts 355°
2026-04-25 02:58 38.77126 -120.14707 37991 ft 461 kts 352°
2026-04-25 02:59 38.83408 -120.16036 37992 ft 460 kts 349°
2026-04-25 02:59 38.89725 -120.17544 38011 ft 460 kts 349°
2026-04-25 03:00 38.96042 -120.18984 38000 ft 460 kts 350°
2026-04-25 03:00 39.02366 -120.20360 38000 ft 460 kts 350°
2026-04-25 03:01 39.08644 -120.21706 38000 ft 460 kts 350°
2026-04-25 03:01 39.14969 -120.23062 37999 ft 460 kts 350°
2026-04-25 03:02 39.21283 -120.24423 38005 ft 459 kts 350°
2026-04-25 03:02 39.27583 -120.25784 37997 ft 459 kts 350°
2026-04-25 03:03 39.33880 -120.27148 38006 ft 458 kts 350°
2026-04-25 03:03 39.40127 -120.28504 38000 ft 458 kts 350°
2026-04-25 03:04 39.45556 -120.29684 37999 ft 457 kts 350°
2026-04-25 03:04 39.51792 -120.31041 38004 ft 457 kts 350°
2026-04-25 03:05 39.61158 -120.33085 38001 ft 456 kts 350°
2026-04-25 03:05 39.67423 -120.34455 38002 ft 456 kts 350°
2026-04-25 03:06 39.73681 -120.35827 38000 ft 455 kts 350°
2026-04-25 03:06 39.79891 -120.37190 38001 ft 454 kts 350°
2026-04-25 03:07 39.86131 -120.38562 37998 ft 454 kts 350°
2026-04-25 03:07 39.92366 -120.39936 38000 ft 454 kts 350°
2026-04-25 03:08 39.98595 -120.41311 38001 ft 454 kts 350°
2026-04-25 03:08 40.04791 -120.42681 38001 ft 454 kts 350°
2026-04-25 03:09 40.11028 -120.44063 38003 ft 454 kts 350°
2026-04-25 03:09 40.17273 -120.45449 38001 ft 455 kts 350°
2026-04-25 03:10 40.23526 -120.46839 38011 ft 455 kts 350°
2026-04-25 03:10 40.29739 -120.48223 38000 ft 455 kts 350°
2026-04-25 03:11 40.35991 -120.49619 38000 ft 454 kts 350°
2026-04-25 03:11 40.42235 -120.51015 38000 ft 454 kts 350°
2026-04-25 03:12 40.48421 -120.52401 37997 ft 453 kts 350°
2026-04-25 03:12 40.54650 -120.53799 37999 ft 453 kts 350°
2026-04-25 03:13 40.60885 -120.55201 37998 ft 453 kts 350°
2026-04-25 03:13 40.67076 -120.56596 38006 ft 454 kts 350°
2026-04-25 03:14 40.73323 -120.58007 38003 ft 454 kts 350°
2026-04-25 03:14 40.79533 -120.59411 38003 ft 455 kts 350°
2026-04-25 03:15 40.84774 -120.60599 38005 ft 456 kts 350°
2026-04-25 03:15 40.90993 -120.62010 38000 ft 456 kts 350°
2026-04-25 03:16 40.97258 -120.63435 38000 ft 456 kts 350°
2026-04-25 03:16 41.03520 -120.64861 38004 ft 456 kts 350°
2026-04-25 03:17 41.09744 -120.66282 38002 ft 456 kts 350°
2026-04-25 03:17 41.16016 -120.67717 37998 ft 456 kts 350°
2026-04-25 03:18 41.22231 -120.69141 38001 ft 456 kts 350°
2026-04-25 03:18 41.28492 -120.70579 38005 ft 456 kts 350°
2026-04-25 03:19 41.34752 -120.72019 38002 ft 455 kts 350°
2026-04-25 03:19 41.40957 -120.73449 38001 ft 455 kts 350°
2026-04-25 03:20 41.47189 -120.74888 38000 ft 454 kts 350°
2026-04-25 03:20 41.53427 -120.76332 37998 ft 453 kts 350°
2026-04-25 03:21 41.59612 -120.77766 38001 ft 453 kts 350°
2026-04-25 03:21 41.65822 -120.79208 38001 ft 453 kts 350°
2026-04-25 03:22 41.72029 -120.80653 38001 ft 452 kts 350°
2026-04-25 03:22 41.78237 -120.82101 38001 ft 452 kts 350°
2026-04-25 03:23 41.84452 -120.83553 38000 ft 452 kts 350°
2026-04-25 03:23 41.90621 -120.84997 38002 ft 452 kts 350°
2026-04-25 03:24 41.96830 -120.86454 38001 ft 452 kts 350°
2026-04-25 03:24 42.03048 -120.87916 38001 ft 453 kts 350°
2026-04-25 03:25 42.09229 -120.89372 38003 ft 453 kts 350°
2026-04-25 03:25 42.15455 -120.90841 38003 ft 454 kts 349°
2026-04-25 03:26 42.21689 -120.92315 38000 ft 454 kts 349°
2026-04-25 03:26 42.27891 -120.93784 38005 ft 455 kts 349°
2026-04-25 03:27 42.34132 -120.95266 38002 ft 455 kts 349°
2026-04-25 03:27 42.40370 -120.96750 38002 ft 454 kts 349°
2026-04-25 03:28 42.46609 -120.98238 38000 ft 454 kts 349°
2026-04-25 03:28 42.52801 -120.99716 37999 ft 454 kts 349°
2026-04-25 03:29 42.59030 -121.01207 38001 ft 454 kts 349°
2026-04-25 03:29 42.65269 -121.02704 38002 ft 454 kts 349°
2026-04-25 03:30 42.71451 -121.04189 38002 ft 454 kts 349°
2026-04-25 03:30 42.77685 -121.05691 38001 ft 454 kts 349°
2026-04-25 03:31 42.83879 -121.07185 38001 ft 454 kts 349°
2026-04-25 03:31 42.90106 -121.08691 38001 ft 453 kts 349°
2026-04-25 03:32 42.96327 -121.10198 38001 ft 453 kts 349°
2026-04-25 03:32 43.02506 -121.11698 38003 ft 453 kts 349°
2026-04-25 03:33 43.08726 -121.13211 38000 ft 453 kts 349°
2026-04-25 03:33 43.14937 -121.14725 38002 ft 453 kts 349°
2026-04-25 03:34 43.21144 -121.16242 38001 ft 453 kts 349°
2026-04-25 03:34 43.27316 -121.17753 38001 ft 452 kts 349°
2026-04-25 03:35 43.33515 -121.19273 38002 ft 452 kts 349°
2026-04-25 03:35 43.39713 -121.20797 38001 ft 452 kts 349°
2026-04-25 03:36 43.45921 -121.22326 38001 ft 452 kts 349°
2026-04-25 03:36 43.52127 -121.23858 38000 ft 452 kts 349°
2026-04-25 03:37 43.58296 -121.25384 38001 ft 452 kts 349°
2026-04-25 03:37 43.64504 -121.26923 38002 ft 453 kts 349°
2026-04-25 03:38 43.70727 -121.28469 37998 ft 454 kts 349°
2026-04-25 03:38 43.76909 -121.30008 38005 ft 454 kts 349°
2026-04-25 03:39 43.79970 -121.31068 37953 ft 455 kts 338°
2026-04-25 03:39 43.82849 -121.32884 38071 ft 452 kts 333°
2026-04-25 03:39 43.88440 -121.36949 38008 ft 454 kts 333°
2026-04-25 03:40 43.94133 -121.40631 38001 ft 454 kts 336°
2026-04-25 03:40 43.99920 -121.44128 38009 ft 453 kts 336°
2026-04-25 03:41 44.05689 -121.47703 37997 ft 453 kts 335°
2026-04-25 03:41 44.11385 -121.51321 38004 ft 452 kts 335°
2026-04-25 03:42 44.17116 -121.54994 37999 ft 452 kts 335°
2026-04-25 03:42 44.22831 -121.58666 38003 ft 451 kts 335°
2026-04-25 03:43 44.28503 -121.62314 38001 ft 451 kts 335°
2026-04-25 03:43 44.34203 -121.65987 38000 ft 450 kts 335°
2026-04-25 03:44 44.39895 -121.69661 38002 ft 449 kts 335°
2026-04-25 03:44 44.45539 -121.73313 37999 ft 449 kts 335°
2026-04-25 03:45 44.51222 -121.76998 37999 ft 449 kts 335°
2026-04-25 03:45 44.56875 -121.80671 37994 ft 449 kts 335°
2026-04-25 03:46 44.62559 -121.84373 38009 ft 450 kts 335°
2026-04-25 03:46 44.68212 -121.88062 38008 ft 451 kts 335°
2026-04-25 03:47 44.73918 -121.91794 38001 ft 451 kts 335°
2026-04-25 03:47 44.79622 -121.95533 38008 ft 451 kts 335°
2026-04-25 03:48 44.85274 -121.99246 38004 ft 451 kts 335°
2026-04-25 03:48 44.90961 -122.02990 37999 ft 451 kts 335°
2026-04-25 03:49 44.96648 -122.06742 38009 ft 450 kts 334°
2026-04-25 03:49 45.02299 -122.10479 37993 ft 450 kts 334°
2026-04-25 03:50 45.07962 -122.14233 38001 ft 449 kts 334°
2026-04-25 03:50 45.13623 -122.17992 38005 ft 448 kts 334°
2026-04-25 03:51 45.19271 -122.21753 38012 ft 447 kts 334°
2026-04-25 03:51 45.24870 -122.25488 37993 ft 447 kts 334°
2026-04-25 03:52 45.30488 -122.29244 38002 ft 445 kts 334°
2026-04-25 03:52 45.36096 -122.33000 38000 ft 444 kts 334°
2026-04-25 03:53 45.41648 -122.36728 37999 ft 443 kts 334°
2026-04-25 03:53 45.47220 -122.40479 38000 ft 442 kts 334°
2026-04-25 03:54 45.52796 -122.44240 38002 ft 441 kts 334°
2026-04-25 03:54 45.58305 -122.47964 38001 ft 441 kts 334°
2026-04-25 03:55 45.63852 -122.51722 37867 ft 442 kts 334°
2026-04-25 03:55 45.66654 -122.53625 37231 ft 446 kts 334°
2026-04-25 03:55 45.69448 -122.55522 36685 ft 443 kts 334°
2026-04-25 03:56 45.72234 -122.57417 35989 ft 443 kts 334°
2026-04-25 03:56 45.75049 -122.59235 35259 ft 443 kts 341°
2026-04-25 03:56 45.78085 -122.60111 34552 ft 443 kts 353°
2026-04-25 03:56 45.81117 -122.60566 33598 ft 448 kts 354°
2026-04-25 03:57 45.84188 -122.61103 33217 ft 439 kts 351°
2026-04-25 03:57 45.87216 -122.61868 32490 ft 439 kts 348°
2026-04-25 03:57 45.90178 -122.62743 31907 ft 435 kts 348°
2026-04-25 03:57 45.93128 -122.63601 31427 ft 426 kts 348°
2026-04-25 03:58 45.96024 -122.64393 30820 ft 418 kts 349°
2026-04-25 03:58 45.98834 -122.65117 30296 ft 411 kts 349°
2026-04-25 03:58 46.01641 -122.65815 29769 ft 408 kts 350°
2026-04-25 03:58 46.04436 -122.66504 29224 ft 405 kts 350°
2026-04-25 03:59 46.07207 -122.67191 28662 ft 403 kts 350°
2026-04-25 03:59 46.09969 -122.67876 28104 ft 400 kts 350°
2026-04-25 03:59 46.12715 -122.68474 27544 ft 398 kts 352°
2026-04-25 03:59 46.15452 -122.69001 26988 ft 395 kts 352°
2026-04-25 04:00 46.18138 -122.69502 26438 ft 392 kts 352°
2026-04-25 04:00 46.20843 -122.70013 25882 ft 390 kts 352°
2026-04-25 04:00 46.23531 -122.70534 25325 ft 387 kts 352°
2026-04-25 04:00 46.25296 -122.70882 24959 ft 385 kts 352°
2026-04-25 04:01 46.27942 -122.71407 24412 ft 383 kts 352°
2026-04-25 04:01 46.30575 -122.71931 23863 ft 380 kts 352°
2026-04-25 04:01 46.33194 -122.72414 23313 ft 377 kts 354°
2026-04-25 04:01 46.35803 -122.72704 22773 ft 374 kts 356°
2026-04-25 04:02 46.38409 -122.72823 22224 ft 371 kts 359°
2026-04-25 04:02 46.40955 -122.72824 21692 ft 369 kts
2026-04-25 04:02 46.43507 -122.72805 21153 ft 366 kts 360°
2026-04-25 04:02 46.46048 -122.72812 20625 ft 363 kts 359°
2026-04-25 04:03 46.48566 -122.72852 20089 ft 360 kts 359°
2026-04-25 04:03 46.51075 -122.72916 19558 ft 357 kts 358°
2026-04-25 04:03 46.53561 -122.72994 19020 ft 355 kts 358°
2026-04-25 04:03 46.56021 -122.73080 18491 ft 352 kts 358°
2026-04-25 04:04 46.58462 -122.73168 17963 ft 349 kts 358°
2026-04-25 04:04 46.60856 -122.73256 17443 ft 347 kts 358°
2026-04-25 04:04 46.63265 -122.73344 16917 ft 344 kts 358°
2026-04-25 04:04 46.65648 -122.73431 16394 ft 342 kts 358°
2026-04-25 04:05 46.68030 -122.73517 15811 ft 341 kts 358°
2026-04-25 04:05 46.70398 -122.73603 15297 ft 338 kts 358°
2026-04-25 04:05 46.72746 -122.73688 14764 ft 336 kts 358°
2026-04-25 04:05 46.75048 -122.73772 14252 ft 333 kts 358°
2026-04-25 04:06 46.77384 -122.73724 13678 ft 332 kts
2026-04-25 04:06 46.79513 -122.72625 13249 ft 327 kts 30°
2026-04-25 04:06 46.81334 -122.70627 12748 ft 324 kts 40°
2026-04-25 04:06 46.83021 -122.68444 12193 ft 324 kts 41°
2026-04-25 04:07 46.84734 -122.66305 11680 ft 321 kts 38°
2026-04-25 04:07 46.86453 -122.64243 11178 ft 319 kts 40°
2026-04-25 04:07 46.88101 -122.62090 10678 ft 316 kts 43°
2026-04-25 04:07 46.89633 -122.59929 10583 ft 301 kts 44°
2026-04-25 04:08 46.91090 -122.57809 10349 ft 291 kts 45°
2026-04-25 04:08 46.92482 -122.55664 10037 ft 284 kts 46°
2026-04-25 04:08 46.93798 -122.53613 9819 ft 276 kts 46°
2026-04-25 04:08 46.95122 -122.51583 9520 ft 272 kts 46°
2026-04-25 04:09 46.96437 -122.49587 9126 ft 272 kts 45°
2026-04-25 04:09 46.97746 -122.47609 9035 ft 270 kts 45°
2026-04-25 04:09 46.99137 -122.45810 8748 ft 272 kts 36°
2026-04-25 04:09 47.00748 -122.44331 8386 ft 270 kts 28°
2026-04-25 04:10 47.02409 -122.43052 8029 ft 269 kts 27°
2026-04-25 04:10 47.02718 -122.42820 7968 ft 268 kts 27°
2026-04-25 04:10 47.04347 -122.41575 7799 ft 255 kts 27°
2026-04-25 04:11 47.07257 -122.39220 7416 ft 230 kts 29°
2026-04-25 04:11 47.08629 -122.38070 7167 ft 222 kts 29°
2026-04-25 04:11 47.09958 -122.36949 6896 ft 217 kts 29°
2026-04-25 04:12 47.11233 -122.35871 6633 ft 211 kts 29°
2026-04-25 04:12 47.12508 -122.34862 6363 ft 205 kts 18°
2026-04-25 04:12 47.13887 -122.34548 6176 ft 196 kts
2026-04-25 04:12 47.15246 -122.34320 5884 ft 194 kts
2026-04-25 04:13 47.16594 -122.34005 5617 ft 198 kts
2026-04-25 04:13 47.17958 -122.33673 5339 ft 194 kts
2026-04-25 04:13 47.19287 -122.33349 4958 ft 196 kts
2026-04-25 04:13 47.20583 -122.33032 4817 ft 189 kts
2026-04-25 04:14 47.21873 -122.32716 4615 ft 189 kts
2026-04-25 04:14 47.23180 -122.32397 4364 ft 189 kts
2026-04-25 04:14 47.24485 -122.32084 4098 ft 189 kts
2026-04-25 04:14 47.25797 -122.31906 3879 ft 191 kts
2026-04-25 04:15 47.27115 -122.31908 3626 ft 185 kts 358°
2026-04-25 04:15 47.28372 -122.31927 3381 ft 181 kts 359°
2026-04-25 04:15 47.29652 -122.31927 3129 ft 183 kts 359°
2026-04-25 04:15 47.30921 -122.31919 2885 ft 179 kts 359°
2026-04-25 04:16 47.32113 -122.31908 2661 ft 166 kts 359°
2026-04-25 04:16 47.33224 -122.31898 2428 ft 154 kts 359°
2026-04-25 04:16 47.34270 -122.31890 2246 ft 148 kts 359°
2026-04-25 04:16 47.35304 -122.31882 2074 ft 147 kts 359°
2026-04-25 04:17 47.36294 -122.31873 1837 ft 138 kts 359°
2026-04-25 04:17 47.37220 -122.31866 1705 ft 132 kts 359°
2026-04-25 04:17 47.38133 -122.31858 1505 ft 131 kts 359°
2026-04-25 04:17 47.39041 -122.31851 1345 ft 130 kts 359°
2026-04-25 04:18 47.39945 -122.31844 1162 ft 130 kts 359°
2026-04-25 04:18 47.40848 -122.31847 996 ft 129 kts 359°
2026-04-25 04:18 47.41743 -122.31848 884 ft 129 kts 359°
2026-04-25 04:18 47.42652 -122.31830 700 ft 131 kts
2026-04-25 04:19 47.43557 -122.31816 484 ft 128 kts 360°
2026-04-25 04:19 47.44431 -122.31810 380 ft 127 kts 360°
2026-04-25 04:19 47.45265 -122.31802 394 ft 102 kts
2026-04-25 04:19 47.45894 -122.31792 414 ft 80 kts 359°
2026-04-25 04:20 47.46178 -122.31698 408 ft 33 kts 32°
2026-04-25 04:20 47.46307 -122.31585 419 ft 11 kts 30°
2026-04-25 04:20 47.46362 -122.31514 424 ft 11 kts 60°
2026-04-25 04:20 47.46369 -122.31411 424 ft 10 kts 91°
2026-04-25 04:21 47.46368 -122.31308 422 ft 10 kts 90°
2026-04-25 04:21 47.46368 -122.31207 435 ft 10 kts 90°
2026-04-25 04:21 47.46368 -122.31109 439 ft 10 kts 90°
2026-04-25 04:21 47.46367 -122.30990 437 ft 14 kts 90°
2026-04-25 04:22 47.46367 -122.30840 428 ft 15 kts 90°
2026-04-25 04:22 47.46374 -122.30716 441 ft 11 kts 77°
2026-04-25 04:22 47.46347 -122.30621 441 ft 11 kts 155°
2026-04-25 04:22 47.46264 -122.30616 434 ft 13 kts 180°
2026-04-25 04:23 47.46159 -122.30617 427 ft 16 kts 180°
2026-04-25 04:23 47.46043 -122.30618 429 ft 16 kts 180°
2026-04-25 04:23 47.45924 -122.30619 433 ft 18 kts 180°
2026-04-25 04:23 47.45800 -122.30620 434 ft 19 kts 180°
2026-04-25 04:24 47.45660 -122.30622 425 ft 22 kts 180°
2026-04-25 04:24 47.45496 -122.30623 419 ft 25 kts 180°
2026-04-25 04:24 47.45318 -122.30625 416 ft 26 kts 180°
2026-04-25 04:24 47.45159 -122.30626 412 ft 19 kts 180°
2026-04-25 04:25 47.45028 -122.30627 412 ft 19 kts 180°
2026-04-25 04:25 47.44897 -122.30628 407 ft 19 kts 181°
2026-04-25 04:25 47.44808 -122.30604 402 ft 10 kts 116°
2026-04-25 04:25 47.44806 -122.30499 407 ft 10 kts 90°
2026-04-25 04:26 47.44771 -122.30393 407 ft 14 kts 130°
2026-04-25 04:26 47.44714 -122.30345 404 ft 8 kts 219°
2026-04-25 04:26 47.44680 -122.30388 400 ft 0 kts 217°